Emporia, VA

8:51 AM EST on December 08, 2019 (GMT -0500)
Emporia-Greensville Regional

Weather History for KEMV - October, 2019

Change the Weather History Date:

Thursday, October 3, 2019

  Actual Average Record
Temperature  
Mean Temperature 82 °F -  
Max Temperature 97 °F 76 °F 97 °F (2019)
Min Temperature 66 °F 49 °F 39 °F (1984)
Cooling Degree Days 16    
Growing Degree Days 32 (Base 50)    
Moisture  
Dew Point 67 °F    
Average Humidity 70    
Maximum Humidity 100    
Minimum Humidity 30    
Precipitation  
Precipitation 0.00 in - - ()
Sea Level Pressure  
Sea Level Pressure 29.95 in    
Wind  
Wind Speed 1 mph (SSW)    
Max Wind Speed 6 mph    
Max Gust Speed -    
Visibility 8 miles    
Events      
Averages and records for this station are not official NWS values.
T = Trace of Precipitation, MM = Missing Value Source: NWS Daily Summary

Daily Weather History Graph

Daily Weather History Graph

Search for Another Location

Airport or City:

Astronomy

Oct. 03, 2019 Rise Set
Actual Time 7:06 AM EDT 6:50 PM EDT
Civil Twilight 6:40 AM EDT 7:16 PM EDT
Nautical Twilight 6:10 AM EDT 7:46 PM EDT
Astronomical Twilight 5:40 AM EDT 8:16 PM EDT
Moon 12:28 PM EDT (10/3) 10:36 PM EDT (10/3)
Length of Visible Light 12h 35m
Length of Day
11h 44m
Waxing Crescent, 29% of the Moon is Illuminated
Oct 3
Waxing Crescent
Oct 5
First Quarter
Oct 13
Full
Oct 21
Last Quarter
Oct 27
New

Hourly Weather History & Observations

Time (EDT) Temp. Heat Index Dew Point Humidity Pressure Visibility Wind Dir Wind Speed Gust Speed Precip Events Conditions
12:15 AM 71.2 °F - 69.8 °F 95% 29.94 in 7.0 mi Calm Calm - N/A   Clear
12:35 AM 70.5 °F - 69.3 °F 96% 29.94 in 7.0 mi Calm Calm - N/A   Clear
12:55 AM 69.4 °F - 67.8 °F 95% 29.94 in 7.0 mi Calm Calm - N/A   Clear
1:15 AM 68.5 °F - 68.2 °F 99% 29.94 in 7.0 mi Calm Calm - N/A   Clear
1:35 AM 70.3 °F - 68.9 °F 95% 29.94 in 7.0 mi Calm Calm - N/A   Clear
1:55 AM 69.6 °F - 68.9 °F 98% 29.94 in 7.0 mi ESE 3.5 mph - N/A   Clear
2:15 AM 69.6 °F - 68.9 °F 98% 29.94 in 7.0 mi Calm Calm - N/A   Clear
2:35 AM 71.6 °F - 70.2 °F 95% 29.94 in 7.0 mi Calm Calm - N/A   Clear
2:55 AM 71.2 °F - 70.0 °F 96% 29.93 in 7.0 mi Calm Calm - N/A   Clear
3:15 AM 72.0 °F - 70.9 °F 96% 29.93 in 7.0 mi Calm Calm - N/A   Clear
3:35 AM 70.9 °F - 70.2 °F 98% 29.93 in 5.0 mi Calm Calm - N/A   Clear
3:55 AM 70.0 °F - 69.3 °F 98% 29.93 in 5.0 mi Calm Calm - N/A   Clear
4:15 AM 68.4 °F - 68.4 °F 100% 29.94 in 1.8 mi Calm Calm - N/A   Unknown
4:35 AM 68.7 °F - 68.7 °F 100% 29.94 in 0.8 mi Calm Calm - N/A   Unknown
5:15 AM 66.0 °F - 66.0 °F 100% 29.95 in 4.0 mi Calm Calm - N/A   Clear
5:35 AM 67.1 °F - 67.1 °F 100% 29.95 in 4.0 mi Calm Calm - N/A   Clear
6:15 AM 66.6 °F - 66.6 °F 100% 29.96 in 0.2 mi Calm Calm - N/A   Unknown
6:35 AM 66.7 °F - 66.7 °F 100% 29.97 in 0.2 mi Calm Calm - N/A   Mostly Cloudy
6:55 AM 66.2 °F - 66.2 °F 100% 29.98 in 0.8 mi Calm Calm - N/A   Unknown
7:15 AM 66.9 °F - 66.9 °F 100% 29.98 in 0.5 mi Calm Calm - N/A   Unknown
8:15 AM 70.5 °F - 68.9 °F 95% 29.99 in 5.0 mi SE 3.5 mph - N/A   Clear
8:35 AM 72.5 °F - 68.4 °F 87% 29.99 in 10.0 mi Calm Calm - N/A   Clear
8:55 AM 74.8 °F - 68.2 °F 80% 29.99 in 10.0 mi West 3.5 mph - N/A   Clear
9:15 AM 77.2 °F - 68.2 °F 74% 29.99 in 10.0 mi SW 3.5 mph - N/A   Clear
9:35 AM 79.0 °F - 68.4 °F 70% 30.00 in 10.0 mi West 3.5 mph - N/A   Clear
9:55 AM 81.0 °F 83.6 °F 67.8 °F 64% 30.00 in 10.0 mi WSW 3.5 mph - N/A   Clear
10:15 AM 82.6 °F 85.5 °F 67.8 °F 61% 30.00 in 10.0 mi Calm Calm - N/A   Clear
10:35 AM 84.6 °F 87.9 °F 68.2 °F 58% 30.00 in - Calm Calm - N/A   Clear
10:55 AM 86.7 °F 90.6 °F 68.7 °F 55% 29.99 in 10.0 mi Calm Calm - N/A   Clear
11:35 AM 88.7 °F 93.0 °F 68.9 °F 52% 29.99 in 10.0 mi WNW 3.5 mph - N/A   Clear
11:55 AM 90.5 °F 94.6 °F 68.4 °F 48% 29.98 in 10.0 mi Calm Calm - N/A   Clear
12:15 PM 90.9 °F 94.8 °F 67.8 °F 47% 29.98 in 10.0 mi Calm Calm - N/A   Clear
12:35 PM 93.4 °F 98.1 °F 68.5 °F 44% 29.98 in 10.0 mi East 3.5 mph - N/A   Clear
12:55 PM 93.6 °F 96.4 °F 66.0 °F 40% 29.97 in 10.0 mi South 4.6 mph - N/A   Clear
1:15 PM 93.9 °F 96.1 °F 65.1 °F 38% 29.97 in - SSE 5.8 mph - N/A   Clear
1:35 PM 94.3 °F 96.2 °F 64.6 °F 37% 29.96 in 10.0 mi NNW 3.5 mph - N/A   Clear
1:55 PM 95.0 °F 97.4 °F 65.3 °F 37% 29.95 in 10.0 mi WNW 5.8 mph - N/A   Clear
2:15 PM 94.8 °F 96.7 °F 64.2 °F 36% 29.94 in 10.0 mi Calm Calm - N/A   Clear
2:35 PM 95.9 °F 98.5 °F 64.9 °F 36% 29.94 in 10.0 mi SSW 4.6 mph - N/A   Clear
2:55 PM 97.0 °F 99.3 °F 64.2 °F 34% 29.93 in 10.0 mi Calm Calm - N/A   Clear
3:15 PM 96.4 °F 96.5 °F 60.6 °F 30% 29.93 in 10.0 mi Calm Calm - N/A   Clear
3:35 PM 97.7 °F 99.5 °F 62.8 °F 32% 29.92 in 10.0 mi Calm Calm - N/A   Clear
3:55 PM 97.3 °F 98.4 °F 62.4 °F 31% 29.92 in 10.0 mi SSE 3.5 mph - N/A   Clear
4:15 PM 97.0 °F 98.8 °F 63.7 °F 33% 29.92 in - SE 4.6 mph - N/A   Clear
4:55 PM 96.4 °F 97.9 °F 62.8 °F 33% 29.91 in 10.0 mi Calm Calm - N/A   Scattered Clouds
5:15 PM 96.1 °F 96.9 °F 61.9 °F 32% 29.91 in 10.0 mi Calm Calm - N/A   Clear
5:35 PM 95.4 °F 96.2 °F 61.7 °F 33% 29.92 in 10.0 mi SSW 3.5 mph - N/A   Clear
5:55 PM 93.9 °F 95.2 °F 63.1 °F 36% 29.92 in 10.0 mi SSW 3.5 mph - N/A   Clear
6:15 PM 92.5 °F 93.7 °F 63.3 °F 38% 29.92 in 10.0 mi Calm Calm - N/A   Clear
6:35 PM 88.5 °F 91.2 °F 66.4 °F 48% 29.92 in 10.0 mi Calm Calm - N/A   Clear
6:55 PM 82.6 °F 85.3 °F 67.3 °F 60% 29.93 in 10.0 mi Calm Calm - N/A   Clear
7:15 PM 81.5 °F 84.6 °F 68.9 °F 65% 29.93 in 10.0 mi Calm Calm - N/A   Clear
7:35 PM 77.4 °F - 68.4 °F 74% 29.93 in 10.0 mi Calm Calm - N/A   Clear
7:55 PM 75.4 °F - 68.4 °F 79% 29.94 in 10.0 mi Calm Calm - N/A   Clear
8:15 PM 75.9 °F - 69.3 °F 80% 29.94 in 10.0 mi Calm Calm - N/A   Clear
8:35 PM 76.1 °F - 68.2 °F 76% 29.94 in 10.0 mi Calm Calm - N/A   Clear
8:55 PM 80.2 °F 82.3 °F 66.0 °F 62% 29.95 in 10.0 mi Calm Calm - N/A   Clear
9:15 PM 75.6 °F - 67.1 °F 75% 29.95 in 10.0 mi Calm Calm - N/A   Clear
9:55 PM 74.1 °F - 67.1 °F 79% 29.96 in 10.0 mi Calm Calm - N/A   Clear
10:15 PM 73.9 °F - 67.3 °F 80% 29.96 in 10.0 mi Calm Calm - N/A   Clear
10:35 PM 72.9 °F - 67.6 °F 84% 29.96 in 10.0 mi Calm Calm - N/A   Clear
10:55 PM 72.9 °F - 68.2 °F 85% 29.96 in 10.0 mi Calm Calm - N/A   Clear
11:15 PM 72.5 °F - 68.4 °F 87% 29.96 in 10.0 mi Calm Calm - N/A   Clear
11:35 PM 72.5 °F - 68.7 °F 88% 29.96 in 10.0 mi Calm Calm - N/A   Clear
11:55 PM 71.2 °F - 68.5 °F 91% 29.96 in 10.0 mi Calm Calm - N/A   Clear